sat.trackr.live / text

‹ back to catalog

STARLINK-6352

NORAD 56782 · 2023-078R

PAYLOAD ACTIVE UNKNOWN

§ Identity

Operator
Country
US
Launch date
2023-05-31
Launch site
AFWTR
Launch vehicle
Mass (kg)
RCS (m²)

Purposes: comms

External: N2YO · Heavens-Above · Gunter

§ Orbital elements

Epoch: 2026-09-20T22:00:03.000096Z

Period
95.11 min
Inclination
70.0001°
Eccentricity
0.0003883
Mean motion
15.14074821 rev/d
Perigee alt
521.1 km
Apogee alt
526.5 km
Semi-major
6,901.9 km
B*
-3.7239e-5
RAAN
191.9780°
Arg perigee
289.8967°
Mean anomaly
38.8150°
Rev number
576

§ Raw data

STARLINK-63521 56782U 23078R   26263.91670139 -.00000788  00000+0 -37239-4 0  99952 56782  70.0001 191.9780 0003883 289.8967  38.8150 15.14074821  5760

JSON: /api/v1/satellites/56782 · /tle

For live sub-satellite position, see the globe view (requires WebGL).

§ Visibility from observer

Set your observer location to see the next 7 days of passes ≥ 10°. The values pass through the URL so the page stays shareable.

No JS? Fill the form by hand. The geolocation button needs JavaScript.